KI5NYZ Weather Reports


time (UTC)temp
C
wind
direction
speed
KPH
gust
KPH
rain 1hr
cm
rain 24hr
cm
rain mn
cm
humidity
%
barometer
mb
20260906215019 35 118 3.2 8.0 0.05 0.25 0.23 31 1013.9
20260906214021 35 183 3.2 12.9 0.05 0.23 0.20 31 1014.1
20260906213026 35 168 3.2 14.5 0.08 0.23 0.20 32 1014.3
20260906212020 36 169 1.6 8.0 0.05 0.23 0.20 31 1014.4
20260906211022 36 152 3.2 14.5 0.05 0.23 0.20 30 1014.5
20260906210026 35 187 6.4 12.9 0.08 0.23 0.18 31 1014.7
20260906205023 34 184 4.8 14.5 0.05 0.20 0.15 33 1014.9
20260906204023 35 153 1.6 12.9 0.05 0.20 0.15 33 1015.1
20260906203022 34 183 4.8 12.9 0.05 0.20 0.15 34 1015.2
20260906202023 35 156 3.2 14.5 0.05 0.20 0.13 33 1015.3
20260906201041 35 190 6.4 12.9 0.08 0.20 0.13 31 1015.4
20260906200043 34 118 3.2 8.0 0.08 0.20 0.13 33 1015.4
20260906195028 35 178 4.8 11.3 0.08 0.20 0.13 33 1015.6
20260906194024 35 181 4.8 14.5 0.08 0.23 0.10 33 1015.6
20260906193046 34 144 1.6 9.7 0.08 0.20 0.10 34 1015.7
20260906192019 35 182 8.0 17.7 0.08 0.20 0.08 33 1015.8
20260906191024 34 130 1.6 6.4 0.05 0.18 0.05 33 1016.0
20260906190019 33 189 3.2 11.3 0.05 0.18 0.05 36 1016.1
20260906185027 33 177 3.2 12.9 0.03 0.20 0.05 36 1016.2
20260906184019 33 185 6.4 16.1 0.03 0.20 0.03 37 1016.3
20260906183023 34 138 1.6 8.0 0.03 0.18 0.03 34 1016.5
20260906182020 33 177 1.6 9.7 0.00 0.18 0.03 37 1016.7
20260906181020 33 118 1.6 4.8 0.00 0.18 0.00 38 1016.8
20260906180101 33 111 3.2 6.4 0.00 0.18 0.00 37 1016.9
20260906175041 32 181 3.2 12.9 0.00 0.18 0.00 38 1017.1
20260906174021 32 116 3.2 6.4 0.00 0.18 0.00 42 1017.2
20260906173104 33 112 3.2 6.4 0.00 0.18 0.00 40 1017.3
20260906172022 32 122 1.6 6.4 0.00 0.18 0.00 40 1017.3
20260906171023 32 347 1.6 6.4 0.00 0.18 0.00 41 1017.3
20260906170024 32 190 1.6 9.7 0.00 0.18 0.00 42 1017.3
20260906165020 31 210 4.8 11.3 0.00 0.18 0.00 43 1017.3
20260906164043 31 169 1.6 8.0 0.00 0.18 0.00 45 1017.3
20260906163045 31 186 3.2 6.4 0.00 0.18 0.00 47 1017.3
20260906162022 31 195 3.2 8.0 0.00 0.18 0.00 47 1017.3
20260906161029 30 185 1.6 9.7 0.00 0.18 0.00 49 1017.2
20260906160020 30 209 4.8 11.3 0.00 0.18 0.00 52 1017.2
20260906155020 29 202 3.2 9.7 0.00 0.18 0.00 52 1017.2
20260906154019 29 189 4.8 11.3 0.00 0.18 0.00 54 1017.1
20260906153020 28 187 4.8 11.3 0.00 0.20 0.00 55 1017.2
20260906152021 28 210 3.2 8.0 0.00 0.20 0.00 55 1017.2
20260906151041 28 200 1.6 8.0 0.00 0.20 0.00 56 1017.1
20260906150020 27 183 3.2 8.0 0.00 0.23 0.00 57 1017.1
20260906145020 27 193 3.2 8.0 0.00 0.23 0.00 59 1017.0
20260906144019 27 181 3.2 8.0 0.00 0.23 0.00 60 1017.0
20260906143020 26 189 1.6 4.8 0.00 0.23 0.00 61 1016.9
20260906142034 26 168 0.0 4.8 0.00 0.25 0.00 62 1016.9
20260906141041 25 159 0.0 4.8 0.00 0.25 0.00 64 1016.8
20260906140042 25 150 0.0 3.2 0.00 0.25 0.00 65 1016.7
20260906135020 23 167 0.0 3.2 0.00 0.25 0.00 67 1016.7
20260906134023 23 0 0.0 0.0 0.00 0.25 0.00 69 1016.6
20260906133022 22 0 0.0 0.0 0.00 0.25 0.00 70 1016.4
20260906132025 21 0 0.0 0.0 0.00 0.25 0.00 72 1016.3
20260906131021 21 0 0.0 0.0 0.00 0.25 0.00 74 1016.3
20260906130044 20 0 0.0 0.0 0.00 0.25 0.00 76 1016.3
20260906125024 20 0 0.0 0.0 0.00 0.25 0.00 77 1016.3
20260906124022 20 0 0.0 0.0 0.00 0.25 0.00 76 1016.1
20260906123021 20 216 0.0 3.2 0.00 0.25 0.00 77 1015.9
20260906122039 20 182 1.6 4.8 0.00 0.25 0.00 77 1015.9
20260906121024 20 204 0.0 3.2 0.00 0.25 0.00 77 1015.9
20260906120019 20 214 0.0 3.2 0.00 0.25 0.00 77 1015.9
20260906115024 20 199 0.0 1.6 0.00 0.25 0.00 77 1015.9
20260906114039 20 0 0.0 0.0 0.00 0.25 0.00 76 1015.9
20260906113024 20 308 0.0 1.6 0.00 0.25 0.00 76 1015.9
20260906112020 20 0 0.0 0.0 0.00 0.25 0.00 75 1015.8
20260906111022 20 0 0.0 0.0 0.00 0.25 0.00 75 1015.8
20260906110041 20 0 0.0 0.0 0.00 0.25 0.00 75 1015.8
20260906105020 20 0 0.0 0.0 0.00 0.25 0.00 74 1015.8
20260906104040 21 0 0.0 0.0 0.00 0.25 0.00 73 1015.7
20260906103044 21 0 0.0 0.0 0.00 0.25 0.00 72 1015.6
20260906102021 21 0 0.0 0.0 0.00 0.25 0.00 72 1015.5
20260906101020 21 0 0.0 0.0 0.00 0.25 0.00 70 1015.4
20260906100023 21 0 0.0 0.0 0.00 0.25 0.00 70 1015.3
20260906095022 21 0 0.0 0.0 0.00 0.25 0.00 69 1015.2
20260906094023 22 205 0.0 1.6 0.00 0.25 0.00 70 1015.1
20260906093023 22 318 3.2 8.0 0.00 0.25 0.00 67 1015.2
20260906092023 22 259 0.0 3.2 0.00 0.25 0.00 67 1015.1
20260906091019 23 193 1.6 4.8 0.00 0.25 0.00 67 1015.1
20260906090019 23 188 1.6 4.8 0.00 0.25 0.00 67 1015.1
20260906085020 23 192 1.6 4.8 0.00 0.25 0.00 66 1015.2
20260906084019 23 206 0.0 3.2 0.00 0.25 0.00 65 1015.1
20260906083021 23 191 1.6 6.4 0.00 0.25 0.00 65 1015.0
20260906082024 23 203 1.6 3.2 0.00 0.25 0.00 64 1015.2
20260906081021 23 220 0.0 1.6 0.00 0.25 0.00 63 1015.3
20260906080021 23 213 0.0 3.2 0.00 0.25 0.00 61 1015.3
20260906075020 24 205 0.0 3.2 0.00 0.25 0.00 61 1015.3
20260906074028 24 199 1.6 4.8 0.00 0.25 0.00 60 1015.3
20260906073048 23 182 4.8 9.7 0.00 0.25 0.00 61 1015.2
20260906072024 23 182 1.6 6.4 0.00 0.25 0.00 61 1015.2
20260906071023 24 231 0.0 3.2 0.00 0.25 0.00 59 1015.2
20260906070021 24 192 0.0 1.6 0.00 0.25 0.00 58 1015.3
20260906065104 25 204 0.0 3.2 0.00 0.25 0.00 56 1015.3
20260906064020 25 157 0.0 3.2 0.00 0.25 0.00 54 1015.4
20260906063021 25 186 3.2 8.0 0.00 0.25 0.00 53 1015.5
20260906062031 26 181 4.8 8.0 0.00 0.25 0.00 53 1015.5
20260906061021 26 180 4.8 8.0 0.00 0.25 0.00 52 1015.4
20260906060027 26 185 4.8 6.4 0.00 0.25 0.00 52 1015.5
20260906055020 26 178 1.6 6.4 0.00 0.25 0.00 53 1015.5
20260906054059 26 177 1.6 6.4 0.00 0.25 0.00 52 1015.4
20260906053019 26 179 1.6 6.4 0.00 0.25 0.00 52 1015.5
20260906052023 26 187 1.6 6.4 0.00 0.25 0.00 51 1015.5
20260906051019 26 181 0.0 6.4 0.00 0.25 0.00 51 1015.6
20260906050022 26 188 1.6 4.8 0.00 0.25 0.00 50 1015.7
20260906045109 26 182 1.6 6.4 0.00 0.25 0.25 51 1015.6
20260906044019 26 188 0.0 3.2 0.00 0.25 0.25 51 1015.4
20260906043020 26 0 0.0 0.0 0.00 0.25 0.25 50 1015.3
20260906042022 27 194 0.0 3.2 0.00 0.25 0.25 48 1015.3
20260906041020 27 341 0.0 1.6 0.00 0.30 0.25 48 1015.4
20260906040022 27 171 0.0 8.0 0.00 0.33 0.25 47 1015.2
20260906035021 27 188 1.6 6.4 0.00 0.36 0.25 46 1015.2
20260906034021 27 187 1.6 6.4 0.00 0.38 0.25 46 1015.1
20260906033021 27 211 0.0 3.2 0.00 0.41 0.25 45 1014.9
20260906032022 28 351 0.0 3.2 0.00 0.43 0.25 45 1014.8
20260906031021 28 192 0.0 3.2 0.00 0.51 0.25 44 1014.7
20260906030026 28 184 0.0 3.2 0.00 0.58 0.25 43 1014.7
20260906025024 28 190 0.0 3.2 0.00 0.66 0.25 42 1014.4
20260906024018 29 191 0.0 3.2 0.00 0.71 0.25 41 1014.2
20260906023019 30 70 0.0 1.6 0.00 0.81 0.25 40 1014.1
20260906022022 30 82 0.0 1.6 0.00 0.86 0.25 39 1013.9
20260906021020 30 76 0.0 1.6 0.00 0.86 0.25 39 1013.9
20260906020025 31 99 0.0 1.6 0.00 0.86 0.25 38 1013.7
20260906015020 31 104 0.0 3.2 0.00 0.89 0.25 38 1013.6
20260906014021 31 219 0.0 1.6 0.00 0.91 0.25 37 1013.5
20260906013019 31 10 0.0 3.2 0.00 0.91 0.25 36 1013.4
20260906012027 32 176 0.0 3.2 0.00 0.91 0.25 35 1013.3
20260906011019 32 98 0.0 6.4 0.00 0.91 0.25 34 1013.2
20260906010040 33 115 0.0 4.8 0.00 0.91 0.25 33 1013.1
20260906005024 34 153 0.0 3.2 0.00 0.91 0.25 32 1013.0
20260906004028 35 175 1.6 6.4 0.00 0.91 0.25 30 1012.9
20260906003023 35 118 1.6 4.8 0.00 0.91 0.25 30 1012.9
20260906002021 35 178 1.6 6.4 0.00 0.91 0.25 30 1012.9
20260906001020 35 123 1.6 6.4 0.00 0.91 0.25 29 1012.7
20260906000027 35 122 1.6 4.8 0.00 0.91 0.25 29 1012.8
20260905235021 35 118 4.8 8.0 0.00 0.91 0.25 29 1012.6
20260905234040 36 121 3.2 6.4 0.00 0.91 0.25 29 1012.5
20260905233021 36 167 1.6 11.3 0.00 0.91 0.25 29 1012.5
20260905232020 36 119 1.6 4.8 0.00 0.91 0.25 29 1012.4
20260905231039 36 119 3.2 8.0 0.00 0.91 0.25 29 1012.4
20260905230020 37 179 3.2 9.7 0.03 0.91 0.25 29 1012.4
20260905225040 37 186 3.2 11.3 0.03 0.91 0.25 29 1012.5
20260905224020 37 114 1.6 4.8 0.03 0.91 0.25 29 1012.5
20260905223044 36 157 3.2 11.3 0.03 0.91 0.25 30 1012.5
20260905222022 36 146 1.6 6.4 0.03 0.91 0.23 31 1012.5
20260905221019 36 185 6.4 16.1 0.03 0.91 0.23 31 1012.6
20260905220021 35 181 1.6 9.7 0.03 0.89 0.23 32 1012.6